QPF
0.01 0.01 0.02 0.02 0.02 0.03 0.06 0.06 0.07 0.07 0.06 0.05 0.05 0.04 0.03 0.03 0.03 0.04 0.04 0.04 0.04 0.04 0.04 0.05 0.04 0.04 0.04 0.03 0.03 0.03 0.05 0.05 0.03 0.01 0.01 0.03 0.06 0.05 0.04 0.03 0.03 0.04 0.05
0.01 0.01 0.02 0.04 0.05 0.06 0.06 0.07 0.07 0.07 0.05 0.04 0.04 0.03 0.03 0.04 0.04 0.04 0.04 0.04 0.04 0.03 0.03 0.05 0.04 0.05 0.05 0.04 0.04 0.04 0.05 0.06 0.05 0.04 0.04 0.04 0.04 0.03 0.03 0.04 0.03 0.02 0.03
0.01 0.04 0.04 0.06 0.06 0.07 0.08 0.07 0.05 0.05 0.04 0.03 0.04 0.04 0.04 0.04 0.05 0.05 0.04 0.04 0.04 0.04 0.04 0.04 0.04 0.04 0.05 0.06 0.07 0.06 0.06 0.05 0.06 0.05 0.04 0.05 0.04 0.03 0.03 0.03 0.03 0.04 0.03
0.02 0.03 0.04 0.04 0.04 0.04 0.04 0.04 0.04 0.04 0.04 0.03 0.03 0.04 0.04 0.04 0.03 0.04 0.04 0.03 0.03 0.03 0.03 0.03 0.03 0.04 0.06 0.07 0.06 0.05 0.05 0.05 0.05 0.05 0.05 0.05 0.05 0.04 0.05 0.04 0.04 0.05 0.04
0.02 0.03 0.03 0.03 0.03 0.03 0.03 0.04 0.04 0.04 0.04 0.04 0.04 0.04 0.04 0.04 0.02 0.02 0.03 0.03 0.04 0.03 0.02 0.02 0.02 0.03 0.04 0.04 0.03 0.04 0.04 0.03 0.04 0.04 0.04 0.04 0.04 0.04 0.04 0.05 0.05 0.07 0.05
0.03 0.04 0.03 0.02 0.02 0.02 0.03 0.04 0.04 0.04 0.05 0.05 0.04 0.04 0.05 0.05 0.03 0.02 0.01 0.02 0.03 0.02 0.02 0.02 0.03 0.03 0.03 0.01 0.01 0.01 0.02 0.03 0.03 0.03 0.04 0.04 0.03 0.03 0.05 0.05 0.05 0.06 0.06
0.05 0.05 0.04 0.04 0.04 0.05 0.05 0.06 0.06 0.06 0.05 0.05 0.06 0.05 0.05 0.06 0.06 0.03 0.01 0.01 0.01 0.01 0.02 0.02 0.02 0.02 0.03 0.03 0.01 0.01 0.01 0.01 0.01 0.02 0.02 0.03 0.03 0.04 0.05 0.05 0.06 0.05 0.05
0.03 0.03 0.03 0.03 0.03 0.04 0.04 0.05 0.06 0.06 0.08 0.09 0.08 0.05 0.05 0.04 0.03 0.02 0.02 0.01 0.01 0.02 0.03 0.03 0.03 0.03 0.03 0.04 0.03 0.03 0.02 0.01 0.01 0.01 0.01 0.01 0.01 0.02 0.04 0.04 0.05 0.05 0.04
0.02 0.02 0.03 0.03 0.03 0.04 0.04 0.04 0.04 0.04 0.04 0.05 0.05 0.05 0.07 0.08 0.07 0.05 0.05 0.03 0.03 0.04 0.04 0.03 0.03 0.03 0.05 0.05 0.05 0.04 0.02 0.02 0.01 0.01 0.01 0.01 0.01 0.01 0.02 0.03 0.03 0.04 0.03
0.02 0.02 0.02 0.03 0.03 0.02 0.03 0.03 0.03 0.03 0.03 0.04 0.03 0.04 0.05 0.09 0.11 0.06 0.05 0.04 0.04 0.03 0.04 0.04 0.03 0.03 0.04 0.05 0.05 0.04 0.03 0.03 0.04 0.04 0.03 0.02 0.02 0.02 0.02 0.02 0.02 0.03 0.03
0.02 0.01 0.02 0.02 0.02 0.01 0.01 0.01 0.01 0.02 0.02 0.02 0.02 0.02 0.03 0.04 0.04 0.02 0.02 0.02 0.02 0.02 0.02 0.03 0.03 0.03 0.03 0.03 0.04 0.03 0.03 0.05 0.07 0.06 0.06 0.04 0.03 0.02 0.03 0.03 0.02 0.01 0.02
0.02 0.01 0.01 0.01 0.01 0.00 0.01 0.02 0.02 0.02 0.02 0.02 0.02 0.02 0.03 0.03 0.02 0.02 0.02 0.02 0.02 0.02 0.02 0.02 0.03 0.03 0.02 0.02 0.02 0.03 0.04 0.06 0.06 0.06 0.06 0.04 0.03 0.03 0.03 0.03 0.03 0.03 0.02
0.01 0.01 0.01 0.01 0.01 0.01 0.01 0.02 0.02 0.02 0.02 0.03 0.03 0.02 0.02 0.03 0.03 0.02 0.02 0.02 0.02 0.02 0.02 0.03 0.03 0.02 0.02 0.01 0.01 0.02 0.03 0.04 0.05 0.05 0.04 0.03 0.03 0.03 0.04 0.04 0.03 0.04 0.04
0.02 0.02 0.01 0.02 0.02 0.01 0.01 0.02 0.02 0.02 0.03 0.03 0.03 0.03 0.03 0.03 0.03 0.03 0.03 0.02 0.02 0.02 0.02 0.02 0.02 0.02 0.03 0.03 0.03 0.03 0.04 0.04 0.05 0.05 0.05 0.05 0.05 0.05 0.04 0.04 0.05 0.05 0.05
0.03 0.02 0.01 0.02 0.02 0.02 0.02 0.02 0.02 0.03 0.02 0.03 0.03 0.02 0.02 0.03 0.03 0.03 0.03 0.02 0.02 0.01 0.02 0.02 0.03 0.03 0.03 0.04 0.03 0.04 0.06 0.05 0.05 0.06 0.07 0.06 0.07 0.06 0.06 0.06 0.10 0.13 0.14
0.03 0.02 0.03 0.03 0.04 0.04 0.04 0.04 0.03 0.02 0.01 0.01 0.02 0.02 0.02 0.02 0.03 0.04 0.03 0.02 0.02 0.02 0.02 0.03 0.03 0.04 0.05 0.05 0.05 0.07 0.08 0.07 0.07 0.06 0.06 0.05 0.05 0.05 0.06 0.07 0.08 0.09 0.11
0.03 0.04 0.04 0.05 0.06 0.05 0.04 0.03 0.02 0.02 0.02 0.02 0.02 0.02 0.02 0.03 0.03 0.03 0.03 0.03 0.03 0.02 0.02 0.03 0.05 0.06 0.06 0.06 0.06 0.06 0.07 0.07 0.07 0.06 0.06 0.06 0.06 0.06 0.07 0.08 0.08 0.08 0.07
0.05 0.05 0.05 0.04 0.04 0.04 0.03 0.03 0.02 0.02 0.03 0.04 0.03 0.04 0.03 0.04 0.03 0.03 0.03 0.03 0.03 0.04 0.03 0.04 0.04 0.04 0.04 0.04 0.04 0.04 0.05 0.04 0.05 0.04 0.05 0.05 0.05 0.05 0.06 0.08 0.08 0.08 0.08
0.05 0.05 0.04 0.03 0.02 0.03 0.03 0.03 0.03 0.04 0.05 0.07 0.06 0.07 0.06 0.05 0.05 0.04 0.04 0.04 0.05 0.05 0.05 0.04 0.04 0.03 0.03 0.02 0.03 0.03 0.03 0.03 0.03 0.03 0.04 0.05 0.05 0.05 0.06 0.07 0.07 0.09 0.09
0.06 0.06 0.05 0.04 0.03 0.03 0.04 0.05 0.05 0.05 0.05 0.05 0.05 0.05 0.06 0.05 0.05 0.05 0.05 0.04 0.04 0.03 0.03 0.03 0.03 0.03 0.03 0.03 0.03 0.03 0.02 0.03 0.03 0.03 0.04 0.04 0.05 0.06 0.06 0.07 0.07 0.08 0.09
0.03 0.04 0.04 0.03 0.03 0.03 0.04 0.06 0.06 0.07 0.06 0.05 0.05 0.04 0.03 0.03 0.03 0.03 0.03 0.02 0.02 0.02 0.02 0.02 0.02 0.02 0.02 0.03 0.02 0.02 0.02 0.02 0.02 0.02 0.03 0.04 0.05 0.06 0.06 0.06 0.05 0.06 0.07
0.02 0.03 0.03 0.04 0.04 0.03 0.04 0.05 0.06 0.06 0.06 0.05 0.04 0.04 0.04 0.03 0.02 0.02 0.02 0.02 0.02 0.02 0.02 0.02 0.02 0.02 0.02 0.01 0.01 0.01 0.01 0.02 0.02 0.02 0.03 0.04 0.05 0.05 0.06 0.06 0.06 0.07 0.06
0.03 0.03 0.04 0.04 0.03 0.04 0.03 0.03 0.04 0.04 0.04 0.03 0.03 0.03 0.03 0.02 0.02 0.02 0.02 0.02 0.03 0.02 0.02 0.02 0.02 0.01 0.01 0.01 0.01 0.02 0.02 0.02 0.02 0.03 0.04 0.05 0.06 0.06 0.07 0.09 0.08 0.08 0.07
0.03 0.04 0.04 0.03 0.03 0.03 0.03 0.03 0.03 0.03 0.03 0.04 0.03 0.03 0.02 0.02 0.02 0.03 0.02 0.02 0.03 0.03 0.02 0.02 0.02 0.01 0.02 0.02 0.02 0.01 0.01 0.01 0.01 0.02 0.04 0.05 0.05 0.05 0.05 0.06 0.07 0.06 0.05
0.03 0.02 0.03 0.03 0.03 0.03 0.03 0.04 0.04 0.05 0.04 0.03 0.02 0.02 0.03 0.03 0.04 0.04 0.04 0.03 0.03 0.03 0.02 0.02 0.03 0.02 0.02 0.02 0.01 0.01 0.01 0.02 0.02 0.02 0.02 0.03 0.03 0.03 0.03 0.03 0.04 0.04 0.04
0.02 0.02 0.03 0.04 0.03 0.03 0.04 0.04 0.05 0.06 0.06 0.07 0.05 0.03 0.04 0.05 0.04 0.03 0.03 0.03 0.02 0.02 0.02 0.03 0.02 0.01 0.01 0.00 0.00 0.01 0.01 0.01 0.01 0.01 0.01 0.02 0.03 0.03 0.03 0.03 0.03 0.04 0.04
MSLP
1011.24 1011.66 1012.10 1012.50 1012.79 1012.95 1012.98 1012.90 1012.76 1012.64 1012.57 1012.60 1012.73 1012.92 1013.15 1013.35 1013.49 1013.54 1013.50 1013.38 1013.24 1013.10 1013.03 1013.03 1013.12 1013.28 1013.47 1013.65 1013.77 1013.80 1013.73 1013.56 1013.31 1013.03 1012.76 1012.54 1012.39 1012.35 1012.39 1012.53 1012.73 1012.99 1013.27
1010.66 1011.09 1011.55 1011.98 1012.32 1012.54 1012.62 1012.59 1012.50 1012.39 1012.32 1012.33 1012.41 1012.56 1012.74 1012.90 1013.01 1013.04 1012.98 1012.86 1012.70 1012.54 1012.43 1012.39 1012.43 1012.54 1012.69 1012.84 1012.95 1012.99 1012.95 1012.82 1012.63 1012.40 1012.18 1011.98 1011.85 1011.80 1011.83 1011.94 1012.12 1012.35 1012.61
1010.19 1010.62 1011.10 1011.55 1011.93 1012.18 1012.30 1012.31 1012.25 1012.15 1012.07 1012.05 1012.09 1012.19 1012.31 1012.42 1012.49 1012.50 1012.42 1012.29 1012.12 1011.95 1011.81 1011.73 1011.72 1011.78 1011.88 1011.99 1012.07 1012.12 1012.09 1012.01 1011.87 1011.70 1011.52 1011.38 1011.28 1011.25 1011.29 1011.39 1011.56 1011.76 1012.01
1009.90 1010.33 1010.80 1011.25 1011.62 1011.89 1012.02 1012.05 1011.99 1011.89 1011.79 1011.73 1011.72 1011.77 1011.83 1011.90 1011.93 1011.92 1011.84 1011.70 1011.54 1011.36 1011.22 1011.11 1011.07 1011.08 1011.14 1011.21 1011.27 1011.30 1011.28 1011.22 1011.12 1010.99 1010.87 1010.77 1010.71 1010.70 1010.75 1010.86 1011.01 1011.20 1011.42
1009.85 1010.24 1010.66 1011.06 1011.40 1011.63 1011.75 1011.76 1011.68 1011.56 1011.43 1011.33 1011.28 1011.26 1011.28 1011.31 1011.32 1011.29 1011.22 1011.10 1010.96 1010.81 1010.68 1010.58 1010.53 1010.52 1010.55 1010.58 1010.61 1010.62 1010.60 1010.54 1010.45 1010.34 1010.24 1010.17 1010.13 1010.13 1010.18 1010.28 1010.41 1010.57 1010.76
1010.03 1010.33 1010.66 1010.98 1011.24 1011.40 1011.45 1011.41 1011.29 1011.13 1010.97 1010.82 1010.72 1010.67 1010.64 1010.64 1010.63 1010.61 1010.56 1010.48 1010.38 1010.29 1010.20 1010.14 1010.10 1010.10 1010.11 1010.13 1010.13 1010.11 1010.06 1009.97 1009.87 1009.75 1009.64 1009.55 1009.49 1009.48 1009.50 1009.57 1009.66 1009.79 1009.93
1010.39 1010.58 1010.78 1010.97 1011.10 1011.15 1011.12 1011.00 1010.82 1010.62 1010.41 1010.23 1010.09 1009.99 1009.94 1009.91 1009.90 1009.88 1009.86 1009.84 1009.80 1009.77 1009.75 1009.74 1009.75 1009.77 1009.79 1009.79 1009.77 1009.71 1009.61 1009.48 1009.32 1009.15 1008.99 1008.85 1008.74 1008.67 1008.64 1008.65 1008.69 1008.77 1008.87
1010.88 1010.92 1010.97 1011.00 1010.99 1010.91 1010.77 1010.57 1010.33 1010.07 1009.83 1009.61 1009.44 1009.32 1009.24 1009.19 1009.18 1009.18 1009.19 1009.21 1009.23 1009.27 1009.31 1009.37 1009.42 1009.47 1009.50 1009.50 1009.44 1009.34 1009.18 1008.98 1008.74 1008.48 1008.23 1008.00 1007.80 1007.64 1007.53 1007.47 1007.46 1007.48 1007.54
1011.44 1011.32 1011.21 1011.08 1010.91 1010.70 1010.46 1010.18 1009.89 1009.60 1009.33 1009.10 1008.91 1008.77 1008.67 1008.62 1008.59 1008.60 1008.62 1008.67 1008.73 1008.81 1008.90 1009.00 1009.09 1009.16 1009.19 1009.16 1009.07 1008.91 1008.68 1008.39 1008.05 1007.69 1007.33 1006.98 1006.67 1006.41 1006.21 1006.07 1005.98 1005.96 1005.99
1012.00 1011.74 1011.48 1011.20 1010.90 1010.59 1010.26 1009.93 1009.61 1009.31 1009.04 1008.81 1008.63 1008.48 1008.38 1008.31 1008.27 1008.26 1008.28 1008.32 1008.39 1008.47 1008.57 1008.68 1008.77 1008.83 1008.84 1008.77 1008.63 1008.40 1008.09 1007.71 1007.27 1006.79 1006.31 1005.85 1005.43 1005.06 1004.76 1004.53 1004.38 1004.31 1004.32
1012.55 1012.17 1011.78 1011.39 1010.99 1010.60 1010.23 1009.89 1009.57 1009.30 1009.06 1008.86 1008.70 1008.57 1008.46 1008.38 1008.32 1008.27 1008.25 1008.26 1008.29 1008.34 1008.40 1008.47 1008.52 1008.53 1008.49 1008.37 1008.16 1007.86 1007.47 1007.00 1006.46 1005.89 1005.30 1004.73 1004.20 1003.73 1003.33 1003.03 1002.82 1002.70 1002.69
1013.07 1012.60 1012.13 1011.66 1011.21 1010.80 1010.42 1010.10 1009.83 1009.60 1009.43 1009.29 1009.17 1009.07 1008.97 1008.88 1008.79 1008.70 1008.62 1008.55 1008.50 1008.47 1008.46 1008.44 1008.42 1008.35 1008.24 1008.05 1007.77 1007.40 1006.94 1006.39 1005.78 1005.12 1004.45 1003.79 1003.17 1002.62 1002.14 1001.76 1001.48 1001.32 1001.27
1013.60 1013.07 1012.55 1012.04 1011.58 1011.17 1010.83 1010.56 1010.36 1010.22 1010.12 1010.06 1010.01 1009.95 1009.87 1009.77 1009.65 1009.51 1009.36 1009.20 1009.06 1008.92 1008.80 1008.68 1008.55 1008.40 1008.19 1007.93 1007.59 1007.16 1006.64 1006.05 1005.39 1004.68 1003.95 1003.23 1002.54 1001.91 1001.35 1000.89 1000.54 1000.31 1000.21
1014.14 1013.59 1013.05 1012.54 1012.09 1011.72 1011.43 1011.23 1011.11 1011.06 1011.06 1011.08 1011.10 1011.09 1011.04 1010.94 1010.80 1010.61 1010.39 1010.15 1009.90 1009.66 1009.43 1009.20 1008.97 1008.72 1008.44 1008.11 1007.72 1007.26 1006.72 1006.10 1005.42 1004.69 1003.94 1003.17 1002.43 1001.74 1001.11 1000.56 1000.12 999.79 999.59
1014.74 1014.18 1013.64 1013.14 1012.72 1012.39 1012.17 1012.04 1012.01 1012.04 1012.12 1012.21 1012.30 1012.34 1012.32 1012.23 1012.07 1011.85 1011.58 1011.27 1010.94 1010.61 1010.28 1009.97 1009.65 1009.34 1009.01 1008.64 1008.23 1007.76 1007.23 1006.62 1005.95 1005.23 1004.47 1003.69 1002.91 1002.15 1001.45 1000.81 1000.25 999.80 999.47
1015.41 1014.84 1014.31 1013.84 1013.45 1013.16 1012.98 1012.91 1012.94 1013.03 1013.17 1013.32 1013.45 1013.52 1013.52 1013.45 1013.28 1013.04 1012.74 1012.39 1012.01 1011.63 1011.25 1010.89 1010.54 1010.19 1009.85 1009.49 1009.09 1008.65 1008.14 1007.58 1006.94 1006.25 1005.50 1004.71 1003.90 1003.09 1002.31 1001.57 1000.89 1000.29 999.79
1016.13 1015.58 1015.06 1014.61 1014.24 1013.98 1013.83 1013.79 1013.84 1013.96 1014.12 1014.29 1014.43 1014.52 1014.53 1014.45 1014.29 1014.04 1013.73 1013.37 1012.98 1012.59 1012.20 1011.83 1011.49 1011.16 1010.84 1010.51 1010.16 1009.77 1009.33 1008.81 1008.23 1007.57 1006.84 1006.05 1005.22 1004.37 1003.51 1002.67 1001.87 1001.13 1000.46
1016.90 1016.36 1015.86 1015.43 1015.08 1014.83 1014.68 1014.64 1014.68 1014.78 1014.92 1015.07 1015.19 1015.26 1015.25 1015.17 1015.00 1014.75 1014.44 1014.09 1013.72 1013.35 1013.00 1012.67 1012.37 1012.09 1011.83 1011.57 1011.28 1010.96 1010.58 1010.13 1009.59 1008.97 1008.27 1007.49 1006.64 1005.76 1004.84 1003.92 1003.02 1002.15 1001.33
1017.68 1017.17 1016.69 1016.27 1015.92 1015.67 1015.51 1015.43 1015.43 1015.49 1015.57 1015.66 1015.72 1015.74 1015.69 1015.57 1015.38 1015.13 1014.84 1014.51 1014.17 1013.85 1013.55 1013.29 1013.06 1012.85 1012.66 1012.47 1012.26 1012.00 1011.68 1011.29 1010.80 1010.21 1009.53 1008.76 1007.92 1007.02 1006.07 1005.11 1004.14 1003.18 1002.26
1018.43 1017.95 1017.50 1017.09 1016.75 1016.48 1016.28 1016.16 1016.10 1016.08 1016.08 1016.08 1016.06 1015.99 1015.87 1015.70 1015.48 1015.21 1014.92 1014.62 1014.32 1014.06 1013.82 1013.63 1013.47 1013.34 1013.22 1013.10 1012.94 1012.74 1012.47 1012.11 1011.65 1011.09 1010.43 1009.68 1008.85 1007.96 1007.02 1006.06 1005.08 1004.10 1003.13
1019.10 1018.65 1018.22 1017.83 1017.48 1017.19 1016.96 1016.78 1016.65 1016.54 1016.44 1016.34 1016.21 1016.05 1015.85 1015.61 1015.34 1015.05 1014.75 1014.46 1014.20 1013.97 1013.80 1013.66 1013.56 1013.49 1013.43 1013.35 1013.24 1013.06 1012.81 1012.47 1012.02 1011.48 1010.84 1010.12 1009.32 1008.47 1007.58 1006.66 1005.72 1004.78 1003.84
1019.62 1019.20 1018.80 1018.41 1018.06 1017.75 1017.48 1017.25 1017.04 1016.84 1016.64 1016.43 1016.20 1015.94 1015.65 1015.33 1015.00 1014.68 1014.36 1014.08 1013.84 1013.65 1013.50 1013.41 1013.35 1013.31 1013.28 1013.22 1013.11 1012.94 1012.69 1012.34 1011.90 1011.37 1010.75 1010.06 1009.31 1008.53 1007.71 1006.88 1006.04 1005.19 1004.34
1019.95 1019.54 1019.14 1018.76 1018.40 1018.07 1017.76 1017.47 1017.19 1016.92 1016.63 1016.32 1015.99 1015.64 1015.27 1014.89 1014.51 1014.14 1013.81 1013.52 1013.29 1013.11 1012.99 1012.91 1012.86 1012.83 1012.79 1012.72 1012.60 1012.41 1012.14 1011.78 1011.33 1010.81 1010.21 1009.57 1008.89 1008.18 1007.47 1006.75 1006.03 1005.31 1004.58
1020.02 1019.61 1019.20 1018.81 1018.43 1018.07 1017.73 1017.39 1017.06 1016.71 1016.35 1015.97 1015.57 1015.14 1014.71 1014.28 1013.86 1013.47 1013.12 1012.83 1012.59 1012.41 1012.29 1012.21 1012.15 1012.11 1012.04 1011.95 1011.79 1011.57 1011.27 1010.90 1010.45 1009.94 1009.38 1008.78 1008.17 1007.56 1006.95 1006.36 1005.78 1005.19 1004.59
1019.83 1019.39 1018.96 1018.54 1018.13 1017.73 1017.35 1016.97 1016.59 1016.19 1015.78 1015.35 1014.90 1014.44 1013.97 1013.51 1013.07 1012.67 1012.32 1012.02 1011.77 1011.59 1011.46 1011.36 1011.28 1011.20 1011.11 1010.97 1010.78 1010.53 1010.22 1009.83 1009.39 1008.90 1008.38 1007.85 1007.31 1006.79 1006.29 1005.81 1005.34 1004.87 1004.39
1019.39 1018.90 1018.42 1017.95 1017.50 1017.07 1016.64 1016.23 1015.81 1015.38 1014.93 1014.48 1014.01 1013.53 1013.06 1012.60 1012.17 1011.77 1011.42 1011.12 1010.87 1010.68 1010.52 1010.40 1010.29 1010.18 1010.05 1009.88 1009.66 1009.40 1009.07 1008.70 1008.28 1007.83 1007.36 1006.90 1006.44 1006.00 1005.58 1005.18 1004.80 1004.42 1004.03
Thickness
5816 5813 5811 5808 5807 5805 5801 5800 5798 5796 5795 5792 5790 5788 5786 5784 5782 5780 5778 5777 5774 5772 5770 5768 5766 5765 5763 5762 5761 5759 5756 5752 5744 5745 5747 5747 5745 5742 5738 5737 5735 5731 5727
5818 5814 5811 5809 5806 5803 5800 5799 5797 5794 5793 5791 5788 5786 5784 5782 5780 5778 5776 5775 5772 5769 5767 5766 5763 5763 5760 5758 5756 5754 5752 5751 5745 5740 5742 5742 5741 5740 5737 5735 5734 5731 5728
5819 5814 5810 5807 5804 5801 5799 5798 5796 5793 5791 5789 5787 5784 5782 5780 5778 5777 5775 5773 5771 5768 5766 5763 5761 5759 5756 5754 5752 5750 5749 5749 5745 5740 5738 5740 5738 5737 5733 5731 5730 5729 5727
5819 5814 5809 5806 5803 5801 5799 5797 5794 5791 5788 5786 5784 5782 5780 5778 5776 5774 5773 5770 5768 5766 5765 5762 5759 5756 5753 5750 5749 5746 5745 5742 5740 5737 5735 5734 5733 5732 5728 5724 5722 5723 5722
5818 5813 5809 5806 5803 5800 5796 5794 5792 5788 5786 5784 5782 5780 5778 5776 5774 5771 5769 5768 5765 5763 5761 5759 5757 5754 5751 5748 5745 5742 5739 5736 5733 5731 5728 5727 5726 5723 5720 5719 5716 5716 5717
5815 5811 5809 5805 5801 5797 5794 5792 5789 5786 5783 5781 5778 5777 5774 5773 5770 5767 5765 5764 5762 5759 5757 5756 5754 5751 5748 5745 5741 5738 5735 5731 5727 5724 5722 5719 5718 5718 5716 5713 5710 5707 5705
5812 5809 5806 5802 5798 5795 5793 5789 5785 5782 5780 5777 5775 5772 5769 5767 5765 5763 5760 5759 5758 5756 5754 5752 5751 5750 5745 5742 5738 5734 5731 5728 5724 5720 5716 5715 5713 5713 5709 5706 5703 5701 5700
5808 5806 5803 5800 5795 5792 5789 5785 5782 5779 5777 5774 5772 5770 5768 5765 5762 5759 5757 5755 5754 5753 5751 5749 5746 5743 5741 5737 5734 5730 5727 5724 5720 5716 5714 5713 5712 5709 5706 5702 5699 5698 5698
5803 5801 5800 5797 5792 5788 5784 5781 5779 5776 5773 5772 5771 5768 5765 5761 5758 5755 5752 5751 5749 5749 5748 5746 5743 5740 5735 5731 5727 5723 5721 5719 5718 5714 5711 5709 5706 5703 5700 5695 5691 5688 5686
5801 5798 5796 5793 5788 5784 5780 5777 5775 5773 5769 5768 5766 5765 5761 5758 5754 5750 5747 5746 5744 5744 5743 5741 5738 5734 5729 5725 5721 5717 5713 5712 5710 5708 5704 5702 5699 5697 5694 5689 5685 5680 5679
5798 5795 5791 5787 5783 5780 5776 5773 5770 5767 5764 5762 5760 5760 5758 5755 5751 5747 5742 5740 5739 5737 5736 5735 5732 5728 5723 5719 5714 5711 5708 5706 5703 5700 5698 5696 5694 5691 5688 5684 5681 5677 5673
5792 5788 5784 5780 5778 5775 5769 5766 5763 5760 5757 5756 5754 5753 5753 5752 5748 5744 5739 5734 5732 5730 5729 5729 5725 5721 5716 5712 5708 5706 5703 5698 5696 5694 5691 5689 5687 5685 5683 5681 5677 5674 5672
5784 5780 5777 5774 5771 5768 5763 5759 5756 5754 5751 5750 5748 5746 5746 5745 5742 5738 5733 5729 5726 5722 5722 5718 5715 5712 5708 5705 5703 5699 5695 5692 5689 5686 5684 5682 5682 5680 5678 5675 5672 5669 5667
5775 5772 5770 5766 5764 5761 5758 5754 5751 5748 5746 5743 5741 5739 5739 5737 5734 5730 5727 5722 5717 5714 5711 5709 5706 5704 5700 5698 5696 5692 5688 5686 5682 5679 5678 5676 5675 5672 5669 5667 5664 5660 5656
5767 5764 5762 5760 5758 5754 5751 5747 5745 5741 5739 5736 5734 5733 5729 5726 5724 5720 5717 5714 5710 5706 5702 5699 5698 5695 5692 5690 5688 5686 5682 5679 5675 5672 5669 5667 5665 5663 5660 5658 5654 5651 5647
5758 5756 5755 5753 5750 5748 5744 5740 5737 5735 5731 5727 5725 5722 5720 5717 5714 5711 5707 5703 5699 5695 5691 5691 5690 5687 5684 5682 5679 5677 5674 5672 5669 5666 5662 5658 5655 5652 5649 5648 5645 5640 5637
5750 5748 5747 5745 5743 5741 5739 5735 5730 5725 5722 5720 5717 5714 5710 5706 5703 5700 5696 5692 5688 5684 5682 5683 5681 5679 5676 5674 5671 5669 5666 5664 5661 5657 5653 5650 5646 5643 5639 5636 5634 5631 5629
5742 5740 5739 5737 5736 5734 5732 5730 5727 5722 5717 5715 5711 5706 5702 5698 5694 5690 5685 5680 5680 5676 5675 5674 5672 5670 5667 5665 5662 5659 5657 5654 5650 5646 5643 5640 5637 5633 5630 5627 5624 5621 5619
5733 5732 5731 5730 5729 5728 5726 5722 5720 5716 5713 5708 5705 5700 5694 5689 5684 5680 5674 5672 5671 5669 5667 5665 5663 5661 5659 5656 5654 5651 5648 5644 5641 5637 5634 5631 5628 5625 5621 5619 5616 5612 5609
5723 5722 5720 5720 5719 5718 5716 5713 5711 5708 5705 5701 5697 5693 5688 5681 5677 5672 5668 5665 5663 5661 5659 5657 5655 5652 5650 5647 5645 5642 5639 5636 5632 5628 5625 5622 5619 5615 5612 5609 5606 5603 5600
5714 5712 5710 5709 5709 5708 5706 5703 5702 5698 5696 5693 5690 5686 5680 5676 5672 5668 5665 5661 5657 5655 5652 5649 5647 5645 5641 5639 5636 5632 5628 5625 5621 5618 5615 5611 5608 5605 5602 5600 5597 5594 5592
5705 5703 5701 5699 5698 5697 5696 5695 5693 5690 5686 5683 5679 5677 5671 5668 5666 5663 5659 5656 5652 5648 5645 5641 5638 5635 5632 5628 5625 5621 5617 5613 5609 5606 5603 5600 5597 5594 5592 5589 5586 5584 5583
5696 5694 5692 5690 5689 5686 5686 5685 5682 5680 5677 5674 5672 5668 5664 5661 5658 5655 5651 5647 5643 5639 5636 5633 5629 5626 5622 5618 5615 5610 5605 5601 5597 5593 5590 5587 5585 5583 5581 5579 5576 5574 5573
5687 5685 5683 5682 5680 5678 5676 5674 5672 5670 5667 5665 5662 5660 5657 5653 5650 5646 5642 5638 5634 5630 5626 5623 5620 5615 5611 5607 5604 5600 5595 5590 5586 5583 5580 5576 5574 5573 5571 5569 5568 5566 5563
5677 5675 5674 5672 5670 5669 5667 5665 5662 5659 5657 5654 5651 5649 5646 5643 5639 5635 5631 5627 5623 5619 5616 5613 5609 5605 5601 5596 5592 5587 5583 5579 5575 5572 5570 5567 5566 5563 5561 5559 5558 5557 5555
5667 5665 5664 5662 5661 5659 5657 5654 5651 5649 5647 5643 5640 5637 5633 5629 5627 5624 5620 5616 5613 5609 5606 5602 5598 5594 5590 5585 5581 5576 5572 5568 5565 5562 5560 5558 5557 5555 5552 5550 5549 5548 5546